When you browse on this site, cookies collect data to enhance your experience and personalize the content and advertising you see.
Visit our Privacy Policy to learn more. By continuing to use the site, you agree to this use of cookies and data.
  • In Österreich
  • Länderverzeichnis
  • Für 7 Tage
  • Wassertemperatur
  • Wetterkarte
  • News
  • Widgets
  • user-avatar
    Anmelden

    Stündliche Wetter Canberra

    Heute, 22 Oktober, Dienstag

    Zeit Temperatur Niederschläge Wind Luftdruck Luftfeuchtigkeit
    00:00 +10°C° 0 mm 1 m/S 714 mmHg 92%
    01:00 +9°C° 0 mm 1 m/S 714 mmHg 93%
    02:00 +9°C° 0 mm 1 m/S 714 mmHg 92%
    03:00 +8°C° 0 mm 0 m/S 714 mmHg 92%
    04:00 +9°C° 0 mm 1 m/S 714 mmHg 91%
    05:00 +10°C° 0 mm 1 m/S 714 mmHg 85%
    06:00 +11°C° 0 mm 0 m/S 714 mmHg 79%
    07:00 +13°C° 0 mm 0 m/S 715 mmHg 74%
    08:00 +18°C° 0 mm 1 m/S 715 mmHg 63%
    09:00 +19°C° 0 mm 2 m/S 715 mmHg 53%
    10:00 +22°C° 0 mm 3 m/S 716 mmHg 43%
    11:00 +24°C° 0 mm 3 m/S 715 mmHg 40%
    12:00 +25°C° 0 mm 3 m/S 715 mmHg 37%
    13:00 +26°C° 0 mm 3 m/S 715 mmHg 34%
    14:00 +26°C° 0 mm 3 m/S 714 mmHg 35%
    15:00 +26°C° 0 mm 4 m/S 714 mmHg 36%
    16:00 +25°C° 0 mm 4 m/S 714 mmHg 38%
    17:00 +21°C° 0 mm 3 m/S 714 mmHg 50%
    18:00 +18°C° 0 mm 2 m/S 714 mmHg 62%
    19:00 +15°C° 0 mm 2 m/S 714 mmHg 75%
    20:00 +13°C° 0 mm 2 m/S 714 mmHg 81%
    21:00 +12°C° 0 mm 1 m/S 714 mmHg 88%
    22:00 +11°C° 0 mm 1 m/S 714 mmHg 94%
    23:00 +10°C° 0 mm 1 m/S 714 mmHg 94%

    Morgen, 23 Oktober, Mittwoch

    Zeit Temperatur Niederschläge Wind Luftdruck Luftfeuchtigkeit
    00:00 +10°C° 0 mm 1 m/S 713 mmHg 94%
    01:00 +9°C° 0 mm 1 m/S 713 mmHg 95%
    02:00 +9°C° 0 mm 1 m/S 713 mmHg 94%
    03:00 +8°C° 0 mm 0 m/S 713 mmHg 93%
    04:00 +8°C° 0 mm 0 m/S 713 mmHg 92%
    05:00 +10°C° 0 mm 0 m/S 713 mmHg 87%
    06:00 +12°C° 0 mm 0 m/S 713 mmHg 81%
    07:00 +14°C° 0 mm 0 m/S 714 mmHg 75%
    08:00 +19°C° 0 mm 1 m/S 714 mmHg 63%
    09:00 +21°C° 0 mm 2 m/S 714 mmHg 52%
    10:00 +25°C° 0 mm 3 m/S 714 mmHg 40%
    11:00 +25°C° 0 mm 3 m/S 713 mmHg 38%
    12:00 +26°C° 0 mm 4 m/S 713 mmHg 35%
    13:00 +27°C° 0 mm 5 m/S 712 mmHg 33%
    14:00 +27°C° 0 mm 5 m/S 712 mmHg 33%
    15:00 +27°C° 0 mm 4 m/S 712 mmHg 33%
    16:00 +26°C° 0 mm 4 m/S 711 mmHg 33%
    17:00 +24°C° 0 mm 3 m/S 711 mmHg 40%
    18:00 +20°C° 0 mm 2 m/S 711 mmHg 46%
    19:00 +18°C° 0 mm 1 m/S 711 mmHg 53%
    20:00 +16°C° 0 mm 1 m/S 711 mmHg 59%
    21:00 +14°C° 0 mm 1 m/S 711 mmHg 66%
    22:00 +13°C° 0 mm 1 m/S 711 mmHg 72%
    23:00 +12°C° 0 mm 1 m/S 711 mmHg 74%

    übermorgen, 24 Oktober, Donnerstag

    Zeit Temperatur Niederschläge Wind Luftdruck Luftfeuchtigkeit
    00:00 +12°C° 0 mm 1 m/S 711 mmHg 76%
    01:00 +10°C° 0 mm 0 m/S 711 mmHg 78%
    02:00 +11°C° 0 mm 1 m/S 710 mmHg 78%
    03:00 +11°C° 0 mm 1 m/S 710 mmHg 78%
    04:00 +10°C° 0 mm 1 m/S 710 mmHg 79%
    05:00 +11°C° 0 mm 0 m/S 711 mmHg 73%
    06:00 +13°C° 0 mm 0 m/S 711 mmHg 67%
    07:00 +15°C° 0 mm 0 m/S 711 mmHg 61%
    08:00 +20°C° 0 mm 1 m/S 712 mmHg 52%
    09:00 +23°C° 0 mm 2 m/S 712 mmHg 42%
    10:00 +26°C° 0 mm 3 m/S 712 mmHg 33%
    11:00 +27°C° 0 mm 3 m/S 711 mmHg 31%
    12:00 +28°C° 0 mm 4 m/S 711 mmHg 30%
    13:00 +28°C° 0 mm 5 m/S 711 mmHg 28%
    14:00 +28°C° 0 mm 5 m/S 710 mmHg 30%
    15:00 +28°C° 0 mm 4 m/S 710 mmHg 31%
    16:00 +28°C° 0 mm 4 m/S 709 mmHg 32%
    17:00 +25°C° 0 mm 3 m/S 709 mmHg 41%
    18:00 +21°C° 0 mm 2 m/S 709 mmHg 49%
    19:00 +19°C° 0 mm 1 m/S 709 mmHg 57%
    20:00 +18°C° 0 mm 1 m/S 709 mmHg 58%
    21:00 +16°C° 0 mm 1 m/S 709 mmHg 60%
    22:00 +15°C° 0 mm 1 m/S 708 mmHg 61%
    23:00 +15°C° 0 mm 1 m/S 708 mmHg 64%

    25 Oktober, Freitag

    Zeit Temperatur Niederschläge Wind Luftdruck Luftfeuchtigkeit
    00:00 +14°C° 0 mm 1 m/S 707 mmHg 66%
    01:00 +12°C° 0 mm 0 m/S 707 mmHg 69%
    02:00 +12°C° 0 mm 0 m/S 707 mmHg 69%
    03:00 +13°C° 0 mm 1 m/S 706 mmHg 69%
    04:00 +13°C° 0 mm 1 m/S 706 mmHg 70%
    05:00 +14°C° 0 mm 2 m/S 706 mmHg 64%
    06:00 +16°C° 0 mm 3 m/S 706 mmHg 59%
    07:00 +18°C° 0 mm 4 m/S 707 mmHg 53%
    08:00 +20°C° 0 mm 5 m/S 706 mmHg 49%
    09:00 +22°C° 0 mm 7 m/S 706 mmHg 44%
    10:00 +24°C° 0 mm 8 m/S 706 mmHg 39%
    11:00 +26°C° 0 mm 9 m/S 706 mmHg 37%
    12:00 +27°C° 0 mm 9 m/S 705 mmHg 35%
    13:00 +27°C° 0 mm 9 m/S 705 mmHg 34%
    14:00 +27°C° 0 mm 9 m/S 704 mmHg 35%
    15:00 +26°C° 0 mm 8 m/S 704 mmHg 36%
    16:00 +26°C° 0 mm 7 m/S 703 mmHg 38%
    17:00 +23°C° 0.2 mm 6 m/S 703 mmHg 46%
    18:00 +21°C° 0.2 mm 5 m/S 703 mmHg 55%
    19:00 +18°C° 0.2 mm 4 m/S 703 mmHg 64%
    20:00 +18°C° 0 mm 4 m/S 702 mmHg 68%
    21:00 +17°C° 0 mm 4 m/S 702 mmHg 72%
    22:00 +16°C° 0 mm 3 m/S 702 mmHg 76%
    23:00 +14°C° 0 mm 3 m/S 701 mmHg 80%

    26 Oktober, Samstag

    Zeit Temperatur Niederschläge Wind Luftdruck Luftfeuchtigkeit
    00:00 +13°C° 0 mm 3 m/S 701 mmHg 85%
    01:00 +13°C° 0 mm 2 m/S 700 mmHg 89%
    02:00 +12°C° 0 mm 3 m/S 700 mmHg 88%
    03:00 +12°C° 0 mm 3 m/S 700 mmHg 87%
    04:00 +12°C° 0 mm 4 m/S 700 mmHg 85%
    05:00 +12°C° 0 mm 5 m/S 700 mmHg 77%
    06:00 +13°C° 0 mm 6 m/S 701 mmHg 68%
    07:00 +14°C° 0 mm 7 m/S 701 mmHg 59%
    08:00 +15°C° 0 mm 8 m/S 701 mmHg 53%
    09:00 +15°C° 0 mm 9 m/S 701 mmHg 46%
    10:00 +16°C° 0 mm 10 m/S 701 mmHg 40%
    11:00 +16°C° 0 mm 10 m/S 702 mmHg 40%
    12:00 +16°C° 0 mm 10 m/S 702 mmHg 39%
    13:00 +16°C° 0 mm 9 m/S 702 mmHg 39%
    14:00 +15°C° 0 mm 9 m/S 702 mmHg 40%
    15:00 +13°C° 0 mm 8 m/S 702 mmHg 40%
    16:00 +13°C° 0 mm 8 m/S 702 mmHg 40%
    17:00 +11°C° 0 mm 6 m/S 703 mmHg 45%
    18:00 +10°C° 0 mm 5 m/S 703 mmHg 49%
    19:00 +9°C° 0 mm 3 m/S 704 mmHg 54%
    20:00 +8°C° 0 mm 3 m/S 704 mmHg 57%
    21:00 +7°C° 0 mm 2 m/S 705 mmHg 60%
    22:00 +6°C° 0 mm 2 m/S 706 mmHg 64%
    23:00 +6°C° 0 mm 2 m/S 706 mmHg 67%

    27 Oktober, Sonntag

    Zeit Temperatur Niederschläge Wind Luftdruck Luftfeuchtigkeit
    00:00 +5°C° 0 mm 2 m/S 706 mmHg 70%
    01:00 +5°C° 0 mm 1 m/S 706 mmHg 74%
    02:00 +4°C° 0 mm 1 m/S 706 mmHg 76%
    03:00 +4°C° 0 mm 1 m/S 707 mmHg 79%
    04:00 +3°C° 0 mm 1 m/S 707 mmHg 82%
    05:00 +5°C° 0 mm 1 m/S 707 mmHg 73%
    06:00 +7°C° 0 mm 1 m/S 708 mmHg 64%
    07:00 +7°C° 0 mm 0 m/S 709 mmHg 54%
    08:00 +11°C° 0 mm 1 m/S 709 mmHg 47%
    09:00 +13°C° 0 mm 1 m/S 709 mmHg 39%
    10:00 +16°C° 0 mm 1 m/S 709 mmHg 31%
    11:00 +17°C° 0 mm 2 m/S 709 mmHg 30%
    12:00 +17°C° 0 mm 3 m/S 709 mmHg 29%
    13:00 +18°C° 0 mm 3 m/S 709 mmHg 28%
    14:00 +18°C° 0 mm 3 m/S 709 mmHg 31%
    15:00 +18°C° 0 mm 3 m/S 709 mmHg 33%
    16:00 +17°C° 0 mm 3 m/S 709 mmHg 36%
    17:00 +14°C° 0 mm 3 m/S 709 mmHg 45%
    18:00 +12°C° 0 mm 3 m/S 710 mmHg 54%
    19:00 +9°C° 0 mm 2 m/S 710 mmHg 63%
    20:00 +8°C° 0 mm 2 m/S 711 mmHg 72%
    21:00 +7°C° 0 mm 2 m/S 711 mmHg 82%
    22:00 +6°C° 0 mm 2 m/S 712 mmHg 91%
    23:00 +6°C° 0 mm 2 m/S 712 mmHg 91%

    28 Oktober, Montag

    Zeit Temperatur Niederschläge Wind Luftdruck Luftfeuchtigkeit
    00:00 +8°C° 0 mm 1 m/S 712 mmHg 91%
    01:00 +8°C° 0 mm 1 m/S 712 mmHg 91%
    02:00 +8°C° 0 mm 1 m/S 712 mmHg 92%
    03:00 +7°C° 0 mm 1 m/S 713 mmHg 93%
    04:00 +7°C° 0 mm 1 m/S 713 mmHg 94%
    05:00 +8°C° 0 mm 1 m/S 713 mmHg 90%
    06:00 +9°C° 0 mm 1 m/S 714 mmHg 87%
    07:00 +10°C° 0 mm 1 m/S 714 mmHg 83%
    08:00 +12°C° 0 mm 1 m/S 714 mmHg 73%
    09:00 +14°C° 0 mm 1 m/S 714 mmHg 62%
    10:00 +18°C° 0 mm 1 m/S 714 mmHg 51%
    11:00 +17°C° 0 mm 2 m/S 714 mmHg 49%
    12:00 +18°C° 0 mm 2 m/S 714 mmHg 47%
    13:00 +18°C° 0 mm 2 m/S 714 mmHg 45%
    14:00 +18°C° 0 mm 2 m/S 714 mmHg 45%
    15:00 +19°C° 0 mm 3 m/S 713 mmHg 45%
    16:00 +19°C° 0 mm 3 m/S 713 mmHg 45%
    17:00 +17°C° 0 mm 3 m/S 713 mmHg 53%
    18:00 +13°C° 0 mm 4 m/S 713 mmHg 62%
    19:00 +11°C° 0 mm 4 m/S 714 mmHg 71%
    20:00 +10°C° 0 mm 3 m/S 714 mmHg 78%
    21:00 +8°C° 0 mm 2 m/S 714 mmHg 86%
    22:00 +7°C° 0 mm 2 m/S 715 mmHg 93%
    23:00 +7°C° 0 mm 2 m/S 714 mmHg 92%
    Mehr zeigen